KF4PPJ Weather Reports


Display with metric or nautical units.
time (UTC)temp
F
wind
direction
speed
MPH
gust
MPH
rain 1hr
in
rain 24hr
in
rain mn
in
humidity
%
barometer
mb
20260508195938 57 224 4.0 7.0 0.00 0.00 0.00 62 1024.2
20260508195436 57 170 3.0 7.0 0.00 0.00 0.00 62 1024.2
20260508194932 57 181 10.0 11.0 0.00 0.00 0.00 61 1024.3
20260508194429 57 217 8.0 9.0 0.00 0.00 0.00 62 1024.4
20260508193926 57 163 4.0 7.0 0.00 0.00 0.00 62 1024.4
20260508193423 57 210 11.0 14.0 0.00 0.00 0.00 63 1024.3
20260508192919 56 207 3.0 7.0 0.00 0.00 0.00 64 1024.2
20260508192416 56 151 5.0 18.0 0.00 0.00 0.00 63 1024.3
20260508191913 56 163 4.0 7.0 0.00 0.00 0.00 64 1024.3
20260508191412 55 178 6.0 18.0 0.00 0.00 0.00 64 1024.1
20260508190908 55 248 6.0 13.0 0.00 0.00 0.00 65 1024.1
20260508190405 55 170 9.0 14.0 0.00 0.00 0.00 67 1024.2
20260508185901 55 167 7.0 9.0 0.00 0.00 0.00 67 1024.2
20260508185359 54 293 4.0 7.0 0.00 0.00 0.00 69 1024.3
20260508184856 54 232 9.0 11.0 0.00 0.00 0.00 68 1024.2
20260508184353 54 136 5.0 7.0 0.00 0.00 0.00 69 1024.3
20260508183849 54 214 9.0 14.0 0.00 0.00 0.00 69 1024.3
20260508183346 54 196 6.0 10.0 0.00 0.00 0.00 69 1024.2
20260508182842 54 184 5.0 7.0 0.00 0.00 0.00 70 1024.1
20260508182339 54 187 6.0 11.0 0.00 0.00 0.00 69 1024.1
20260508181834 55 239 4.0 6.0 0.00 0.00 0.00 69 1024.0
20260508181331 55 211 2.0 9.0 0.00 0.00 0.00 68 1024.0
20260508180828 55 242 5.0 8.0 0.00 0.00 0.00 69 1023.9
20260508180325 55 155 4.0 8.0 0.00 0.00 0.00 69 1023.7
20260508175821 55 119 3.0 9.0 0.00 0.00 0.00 69 1023.7
20260508175318 55 181 5.0 8.0 0.00 0.00 0.00 68 1023.6
20260508174816 54 205 8.0 11.0 0.00 0.00 0.00 69 1023.7
20260508174313 54 156 8.0 10.0 0.00 0.00 0.00 70 1023.5
20260508173809 54 192 6.0 8.0 0.00 0.00 0.00 70 1023.5
20260508173307 53 164 5.0 13.0 0.00 0.00 0.00 72 1023.5
20260508172802 53 208 5.0 8.0 0.00 0.00 0.00 73 1023.3
20260508172300 53 174 3.0 7.0 0.00 0.00 0.00 73 1023.1
20260508171755 53 167 2.0 5.0 0.00 0.00 0.00 74 1023.1
20260508171252 53 191 7.0 10.0 0.00 0.00 0.00 73 1023.1
20260508170749 53 206 5.0 7.0 0.00 0.00 0.00 73 1023.1
20260508170247 53 193 5.0 7.0 0.00 0.00 0.00 73 1023.1
20260508165744 53 198 2.0 7.0 0.00 0.00 0.00 74 1022.9
20260508165241 53 179 4.0 7.0 0.00 0.00 0.00 75 1023.2
20260508164737 53 218 3.0 5.0 0.00 0.00 0.00 75 1022.8
20260508164233 53 230 5.0 5.0 0.00 0.00 0.00 74 1022.7
20260508163732 53 174 0.0 3.0 0.00 0.00 0.00 74 1022.8
20260508163229 53 169 2.0 6.0 0.00 0.00 0.00 73 1022.7
20260508162725 53 213 4.0 6.0 0.00 0.00 0.00 73 1022.9
20260508162222 53 250 5.0 6.0 0.00 0.00 0.00 73 1022.7
20260508161719 53 225 3.0 6.0 0.00 0.00 0.00 73 1022.7
20260508161216 53 194 2.0 3.0 0.00 0.00 0.00 73 1022.7
20260508160714 53 138 2.0 6.0 0.00 0.00 0.00 72 1022.6
20260508160212 53 133 3.0 3.0 0.00 0.00 0.00 72 1022.8
20260508155708 53 231 4.0 8.0 0.00 0.00 0.00 73 1022.5
20260508155205 53 163 1.0 3.0 0.00 0.00 0.00 74 1022.6
20260508154702 53 176 5.0 6.0 0.00 0.00 0.00 74 1022.5
20260508154159 52 197 4.0 7.0 0.00 0.00 0.00 74 1022.9
20260508153656 52 202 6.0 8.0 0.00 0.00 0.00 74 1022.6
20260508153153 52 156 5.0 7.0 0.00 0.00 0.00 75 1022.8
20260508152649 52 254 5.0 8.0 0.00 0.00 0.00 75 1022.8
20260508152145 52 212 7.0 11.0 0.00 0.00 0.00 74 1022.8
20260508151642 52 224 5.0 10.0 0.00 0.00 0.00 75 1022.8
20260508151139 52 199 8.0 13.0 0.00 0.00 0.00 75 1022.9
20260508150637 52 252 7.0 8.0 0.00 0.00 0.00 75 1022.8
20260508150133 52 192 4.0 8.0 0.00 0.00 0.00 77 1022.7
20260508145629 52 214 4.0 6.0 0.00 0.00 0.00 77 1022.6
20260508145125 52 211 5.0 8.0 0.00 0.00 0.00 77 1022.7
20260508144623 51 177 3.0 9.0 0.00 0.00 0.00 79 1022.6
20260508144115 51 219 7.0 10.0 0.00 0.00 0.00 79 1022.5
20260508143612 51 187 7.0 9.0 0.00 0.00 0.00 80 1022.2
20260508143108 51 218 5.0 8.0 0.00 0.00 0.00 81 1022.3
20260508142605 51 216 4.0 8.0 0.00 0.00 0.00 80 1022.1
20260508142102 51 178 9.0 13.0 0.00 0.00 0.00 81 1022.2
20260508141559 50 221 6.0 9.0 0.00 0.00 0.00 82 1022.0
20260508141056 50 201 5.0 9.0 0.00 0.00 0.00 82 1022.0
20260508140553 50 152 7.0 8.0 0.00 0.00 0.00 82 1021.9
20260508140049 50 210 6.0 9.0 0.00 0.00 0.00 83 1021.9
20260508135544 50 105 3.0 5.0 0.00 0.00 0.00 83 1021.5
20260508135041 50 181 2.0 7.0 0.00 0.00 0.00 82 1021.6
20260508134538 50 214 5.0 7.0 0.00 0.00 0.00 83 1021.5
20260508134035 50 197 7.0 9.0 0.00 0.00 0.00 83 1021.5
20260508133532 50 139 3.0 7.0 0.00 0.00 0.00 83 1021.3
20260508133029 50 206 3.0 7.0 0.00 0.00 0.00 84 1021.2
20260508132527 50 184 4.0 7.0 0.00 0.00 0.00 84 1021.4
20260508132023 50 200 4.0 7.0 0.00 0.00 0.00 84 1021.2
20260508131518 50 184 3.0 3.0 0.00 0.00 0.00 84 1021.0
20260508131015 50 197 3.0 6.0 0.00 0.00 0.00 83 1021.0
20260508130513 50 180 6.0 8.0 0.00 0.00 0.00 84 1021.0
20260508130009 51 201 4.0 6.0 0.00 0.00 0.00 83 1021.0
20260508125505 51 150 3.0 8.0 0.00 0.00 0.00 83 1021.0
20260508125002 50 210 4.0 8.0 0.00 0.00 0.00 83 1020.8
20260508124500 51 222 4.0 5.0 0.00 0.00 0.00 83 1020.7
20260508123957 51 190 2.0 7.0 0.00 0.00 0.00 83 1020.5
20260508123456 51 211 4.0 6.0 0.00 0.00 0.00 83 1020.7
20260508122952 51 210 4.0 5.0 0.00 0.00 0.00 84 1020.6
20260508122449 51 210 3.0 7.0 0.00 0.00 0.00 84 1020.6
20260508121946 51 216 3.0 6.0 0.00 0.00 0.00 84 1020.4
20260508121444 51 206 3.0 8.0 0.00 0.00 0.00 84 1020.6
20260508120942 51 207 2.0 6.0 0.00 0.00 0.00 84 1020.3
20260508120439 51 179 2.0 5.0 0.00 0.00 0.00 84 1020.3
20260508115937 51 134 4.0 5.0 0.00 0.00 0.00 84 1020.3
20260508115435 51 158 2.0 2.0 0.00 0.00 0.00 83 1020.4
20260508114931 51 216 2.0 3.0 0.00 0.00 0.00 84 1020.2
20260508114428 51 186 2.0 5.0 0.00 0.00 0.00 84 1020.2
20260508113924 51 182 1.0 5.0 0.00 0.00 0.00 84 1020.5
20260508113422 51 192 5.0 5.0 0.00 0.00 0.00 85 1020.3
20260508112919 51 180 2.0 5.0 0.00 0.00 0.00 85 1020.3
20260508112416 51 174 1.0 5.0 0.00 0.00 0.00 84 1020.1
20260508111913 51 188 3.0 5.0 0.00 0.00 0.00 84 1019.8
20260508111410 51 224 5.0 7.0 0.00 0.00 0.00 84 1020.1
20260508110907 51 185 1.0 2.0 0.00 0.00 0.00 85 1020.2
20260508110405 51 212 4.0 5.0 0.00 0.00 0.00 85 1020.1
20260508105904 51 140 3.0 3.0 0.00 0.00 0.00 86 1019.9
20260508105400 51 191 2.0 3.0 0.00 0.00 0.00 87 1019.6
20260508104858 51 176 2.0 2.0 0.00 0.00 0.00 88 1020.0
20260508104355 51 146 0.0 2.0 0.00 0.00 0.00 90 1019.6
20260508103852 50 182 2.0 3.0 0.00 0.00 0.00 92 1019.7
20260508103349 50 179 2.0 3.0 0.00 0.00 0.00 93 1019.7
20260508102846 50 167 1.0 3.0 0.00 0.00 0.00 94 1019.6
20260508102344 49 167 2.0 3.0 0.00 0.00 0.00 95 1019.3
20260508101841 49 184 0.0 1.0 0.00 0.00 0.00 95 1019.8
20260508101339 48 163 0.0 0.0 0.00 0.00 0.00 95 1019.7
20260508100836 48 164 0.0 2.0 0.00 0.00 0.00 95 1019.8
20260508100335 48 150 0.0 0.0 0.00 0.00 0.00 95 1019.5
20260508095830 48 156 0.0 0.0 0.00 0.00 0.00 95 1019.5
20260508095328 48 159 0.0 0.0 0.00 0.00 0.00 95 1019.6
20260508094825 48 152 0.0 0.0 0.00 0.00 0.00 95 1019.3
20260508094322 48 152 0.0 0.0 0.00 0.00 0.00 94 1019.8
20260508093819 48 154 0.0 0.0 0.00 0.00 0.00 94 1019.5
20260508093316 48 155 0.0 0.0 0.00 0.00 0.00 94 1019.6
20260508092813 48 155 0.0 0.0 0.00 0.00 0.00 94 1019.5
20260508092313 48 149 0.0 0.0 0.00 0.00 0.00 94 1019.6
20260508091809 48 155 0.0 0.0 0.00 0.00 0.00 94 1019.5
20260508091305 48 151 0.0 0.0 0.00 0.00 0.00 94 1019.5
20260508090803 48 151 0.0 0.0 0.00 0.00 0.00 94 1019.7
20260508090301 48 149 0.0 0.0 0.00 0.00 0.00 94 1019.3
20260508085757 48 149 0.0 0.0 0.00 0.00 0.00 93 1019.5
20260508085254 49 149 0.0 0.0 0.00 0.00 0.00 93 1019.5
20260508084750 49 149 0.0 0.0 0.00 0.00 0.00 93 1019.4
20260508084247 49 149 0.0 0.0 0.00 0.00 0.00 93 1019.2
20260508083745 49 149 0.0 0.0 0.00 0.00 0.00 93 1019.3
20260508083243 49 149 0.0 0.0 0.00 0.00 0.00 93 1019.3
20260508082742 49 149 0.0 0.0 0.00 0.00 0.00 93 1019.4
20260508082240 49 148 0.0 0.0 0.00 0.00 0.00 92 1019.1
20260508081737 49 149 0.0 0.0 0.00 0.00 0.00 92 1019.2
20260508081234 49 148 0.0 0.0 0.00 0.00 0.00 92 1019.3
20260508080731 49 149 0.0 0.0 0.00 0.00 0.00 92 1019.5
20260508080229 49 148 0.0 0.0 0.00 0.00 0.00 91 1019.2
20260508075725 49 148 0.0 0.0 0.00 0.00 0.00 91 1019.3
20260508075222 49 154 0.0 0.0 0.00 0.00 0.00 91 1019.4
20260508074720 49 148 0.0 0.0 0.00 0.00 0.00 91 1019.1
20260508074218 49 137 0.0 0.0 0.00 0.00 0.00 91 1019.3
20260508073714 49 136 0.0 0.0 0.00 0.00 0.00 91 1019.1
20260508073212 49 148 0.0 0.0 0.00 0.00 0.00 90 1019.3
20260508072708 49 152 0.0 0.0 0.00 0.00 0.00 90 1019.4
20260508072205 49 145 0.0 0.0 0.00 0.00 0.00 90 1019.3
20260508071702 49 145 0.0 0.0 0.00 0.00 0.00 89 1019.5
20260508071201 49 163 0.0 0.0 0.00 0.00 0.00 89 1019.4
20260508070657 49 145 0.0 0.0 0.00 0.00 0.00 89 1019.5
20260508070156 49 149 0.0 0.0 0.00 0.00 0.00 89 1019.5
20260508065653 49 149 0.0 0.0 0.00 0.00 0.00 88 1019.5
20260508065151 50 148 0.0 0.0 0.00 0.00 0.00 88 1019.6
20260508064648 50 149 0.0 0.0 0.00 0.00 0.00 87 1019.5
20260508064146 50 149 0.0 0.0 0.00 0.00 0.00 87 1019.5
20260508063643 50 148 0.0 0.0 0.00 0.00 0.00 87 1019.3
20260508063141 50 148 0.0 0.0 0.00 0.00 0.00 87 1019.3
20260508062638 50 149 0.0 0.0 0.00 0.00 0.00 87 1019.2
20260508062135 50 148 0.0 0.0 0.00 0.00 0.00 88 1019.2
20260508061632 50 148 0.0 0.0 0.00 0.00 0.00 88 1019.4
20260508061130 50 149 0.0 0.0 0.00 0.00 0.00 88 1019.3
20260508060626 50 149 0.0 0.0 0.00 0.00 0.00 87 1019.4
20260508060124 50 149 0.0 0.0 0.00 0.00 0.00 87 1019.4
20260508055619 50 149 0.0 0.0 0.00 0.00 0.00 86 1019.5
20260508055116 51 148 0.0 0.0 0.00 0.00 0.00 86 1019.1
20260508054613 51 157 0.0 0.0 0.00 0.00 0.00 85 1019.5
20260508054110 51 165 0.0 0.0 0.00 0.00 0.00 85 1019.5
20260508053607 51 149 0.0 0.0 0.00 0.00 0.00 85 1019.5
20260508053105 51 149 0.0 0.0 0.00 0.00 0.00 84 1019.4
20260508052602 52 149 0.0 0.0 0.00 0.00 0.00 84 1019.4
20260508052059 52 149 0.0 0.0 0.00 0.00 0.00 83 1019.5
20260508051555 52 149 0.0 0.0 0.00 0.00 0.00 83 1019.4
20260508051050 52 149 0.0 0.0 0.00 0.00 0.00 83 1019.7
20260508050547 52 149 0.0 0.0 0.00 0.00 0.00 83 1019.5
20260508050044 52 149 0.0 0.0 0.00 0.00 0.00 83 1019.5
20260508045540 52 149 0.0 0.0 0.00 0.00 0.00 83 1019.6
20260508045038 52 149 0.0 0.0 0.00 0.00 0.00 82 1019.5
20260508044535 53 149 0.0 0.0 0.00 0.00 0.00 82 1019.6
20260508044031 53 149 0.0 0.0 0.00 0.00 0.00 82 1019.8
20260508043528 53 149 0.0 0.0 0.00 0.00 0.00 81 1019.7
20260508043026 53 149 0.0 0.0 0.00 0.00 0.00 80 1019.7
20260508042522 53 149 0.0 0.0 0.00 0.00 0.00 80 1019.7
20260508042020 54 149 0.0 0.0 0.00 0.00 0.00 80 1019.7
20260508041515 54 149 0.0 0.0 0.00 0.00 0.00 80 1019.6
20260508041012 54 149 0.0 0.0 0.00 0.00 0.00 79 1019.7
20260508040509 55 149 0.0 0.0 0.00 0.00 0.00 79 1019.7
20260508040007 55 149 0.0 0.0 0.00 0.00 0.00 79 1019.5
20260508035504 55 149 0.0 0.0 0.00 0.00 0.00 79 1019.8
20260508035000 55 149 0.0 0.0 0.00 0.00 0.00 78 1019.5
20260508034458 56 149 0.0 0.0 0.00 0.00 0.00 77 1019.6
20260508033954 56 149 0.0 0.0 0.00 0.00 0.00 76 1019.3
20260508033452 57 149 0.0 0.0 0.00 0.00 0.00 75 1019.4
20260508032950 57 149 0.0 0.0 0.00 0.00 0.00 74 1019.5
20260508032447 57 149 0.0 0.0 0.00 0.00 0.00 72 1019.4
20260508031944 58 149 0.0 0.0 0.00 0.00 0.00 71 1019.2
20260508031441 58 149 0.0 0.0 0.00 0.00 0.00 71 1019.4
20260508030937 58 149 0.0 0.0 0.00 0.00 0.00 70 1019.5
20260508030434 59 149 0.0 0.0 0.00 0.00 0.00 70 1019.4
20260508025931 59 150 0.0 0.0 0.00 0.00 0.00 69 1019.3
20260508025428 59 148 0.0 0.0 0.00 0.00 0.00 69 1019.4
20260508024919 60 150 0.0 0.0 0.00 0.00 0.00 69 1019.4
20260508024416 60 138 0.0 0.0 0.00 0.00 0.00 68 1019.5
20260508023913 61 157 0.0 0.0 0.00 0.00 0.00 68 1019.7
20260508023410 62 150 0.0 0.0 0.00 0.00 0.00 66 1019.5
20260508022906 63 158 0.0 0.0 0.00 0.00 0.00 62 1019.6
20260508022401 63 161 0.0 1.0 0.00 0.00 0.00 61 1019.6
20260508021858 63 164 0.0 2.0 0.00 0.00 0.00 60 1019.5
20260508021349 64 164 2.0 2.0 0.00 0.00 0.00 59 1019.7
20260508020845 64 168 1.0 2.0 0.00 0.00 0.00 54 1019.7
20260508020343 64 215 3.0 5.0 0.00 0.00 0.00 55 1019.8
20260508015840 64 199 2.0 2.0 0.00 0.00 0.00 57 1019.6
20260508015338 64 171 3.0 6.0 0.00 0.00 0.00 57 1020.0
20260508014834 64 172 3.0 7.0 0.00 0.00 0.00 56 1019.8
20260508014332 64 183 1.0 3.0 0.00 0.00 0.00 56 1019.8
20260508013831 64 151 2.0 5.0 0.00 0.00 0.00 55 1020.1
20260508013328 64 173 1.0 2.0 0.00 0.00 0.00 56 1019.9
20260508012826 64 155 1.0 2.0 0.00 0.00 0.00 54 1020.0
20260508012323 65 169 2.0 2.0 0.00 0.00 0.00 52 1020.1
20260508011820 66 196 3.0 5.0 0.00 0.00 0.00 51 1020.0
20260508011318 66 208 2.0 3.0 0.00 0.00 0.00 51 1019.9
20260508010815 65 206 3.0 3.0 0.00 0.00 0.00 53 1020.0
20260508010313 65 171 2.0 3.0 0.00 0.00 0.00 53 1020.1
20260508005809 65 209 3.0 5.0 0.00 0.00 0.00 53 1020.2
20260508005306 65 194 1.0 5.0 0.00 0.00 0.00 53 1020.3
20260508004802 65 216 4.0 5.0 0.00 0.00 0.00 52 1020.4
20260508004258 66 199 1.0 3.0 0.00 0.00 0.00 52 1020.5
20260508003755 65 219 2.0 3.0 0.00 0.00 0.00 52 1020.2
20260508003253 66 208 3.0 5.0 0.00 0.00 0.00 52 1020.3
20260508002748 65 198 2.0 3.0 0.00 0.00 0.00 52 1020.3
20260508002246 66 212 3.0 5.0 0.00 0.00 0.00 51 1020.6
20260508001742 66 153 5.0 6.0 0.00 0.00 0.00 52 1020.5
20260508001237 65 163 0.0 2.0 0.00 0.00 0.00 53 1020.5
20260508000734 65 193 0.0 2.0 0.00 0.00 0.00 53 1020.5
20260508000234 66 154 5.0 7.0 0.00 0.00 0.00 51 1020.7
20260507235727 66 160 3.0 5.0 0.00 0.00 0.00 52 1020.6
20260507235225 66 103 3.0 5.0 0.00 0.00 0.00 51 1020.7
20260507234722 66 249 3.0 5.0 0.00 0.00 0.00 51 1020.6
20260507234219 66 195 3.0 3.0 0.00 0.00 0.00 51 1020.7
20260507233715 66 223 3.0 10.0 0.00 0.00 0.00 53 1020.7
20260507233213 66 212 1.0 3.0 0.00 0.00 0.00 52 1020.9
20260507232710 67 263 3.0 7.0 0.00 0.00 0.00 53 1021.0
20260507232207 65 205 3.0 10.0 0.00 0.00 0.00 53 1020.5
20260507231704 64 222 6.0 8.0 0.00 0.00 0.00 53 1020.9
20260507231201 64 197 4.0 7.0 0.00 0.00 0.00 53 1020.9
20260507230657 65 225 7.0 9.0 0.00 0.00 0.00 53 1021.2
20260507230155 64 215 3.0 6.0 0.00 0.00 0.00 53 1020.9
20260507225654 64 199 4.0 7.0 0.00 0.00 0.00 55 1021.1
20260507225151 63 243 3.0 7.0 0.00 0.00 0.00 55 1021.2
20260507224646 63 210 4.0 6.0 0.00 0.00 0.00 54 1021.2
20260507224143 65 139 4.0 7.0 0.00 0.00 0.00 52 1021.1
20260507223639 65 259 3.0 3.0 0.00 0.00 0.00 52 1021.4
20260507223137 64 190 2.0 5.0 0.00 0.00 0.00 53 1021.4
20260507222634 63 204 6.0 9.0 0.00 0.00 0.00 55 1021.4
20260507222130 64 221 3.0 7.0 0.00 0.00 0.00 55 1021.6
20260507221626 64 195 4.0 10.0 0.00 0.00 0.00 54 1021.5
20260507221123 63 233 4.0 5.0 0.00 0.00 0.00 56 1021.5
20260507220620 63 229 7.0 9.0 0.00 0.00 0.00 55 1021.6
20260507220118 62 184 5.0 7.0 0.00 0.00 0.00 55 1021.8
20260507215613 63 247 6.0 10.0 0.00 0.00 0.00 54 1021.5
20260507215112 62 249 6.0 9.0 0.00 0.00 0.00 55 1021.6
20260507214608 64 231 5.0 7.0 0.00 0.00 0.00 53 1021.6
20260507214104 63 186 5.0 6.0 0.00 0.00 0.00 55 1021.9
20260507213601 63 216 3.0 8.0 0.00 0.00 0.00 56 1021.8
20260507213058 63 219 3.0 8.0 0.00 0.00 0.00 56 1021.6
20260507212554 63 185 5.0 8.0 0.00 0.00 0.00 55 1021.7
20260507212051 63 205 3.0 7.0 0.00 0.00 0.00 56 1021.8
20260507211547 63 194 7.0 8.0 0.00 0.00 0.00 56 1022.0
20260507211043 63 196 8.0 9.0 0.00 0.00 0.00 56 1022.0
20260507210541 62 147 3.0 9.0 0.00 0.00 0.00 56 1022.0
20260507210038 62 218 5.0 7.0 0.00 0.00 0.00 56 1022.0
20260507205534 62 164 7.0 8.0 0.00 0.00 0.00 56 1022.3
20260507205031 62 223 3.0 5.0 0.00 0.00 0.00 57 1022.4
20260507204527 62 175 5.0 7.0 0.00 0.00 0.00 56 1022.4
20260507204025 62 181 4.0 6.0 0.00 0.00 0.00 57 1022.4
20260507203523 62 214 4.0 6.0 0.00 0.00 0.00 57 1022.5
20260507203020 62 213 3.0 7.0 0.00 0.00 0.00 56 1022.5
20260507202515 62 220 3.0 5.0 0.00 0.00 0.00 57 1022.6
20260507202012 61 248 5.0 6.0 0.00 0.00 0.00 59 1022.5
20260507201508 61 214 4.0 10.0 0.00 0.00 0.00 58 1022.8
20260507201004 61 225 3.0 8.0 0.00 0.00 0.00 59 1022.7
20260507200459 60 209 3.0 5.0 0.00 0.00 0.00 59 1022.7